Theta_e
307 307 307 305 302 299 298 297 299 303 303 303 304 304 304 305 304 304 306 309 312 306 306 306 306 306 305 301 300 302 307 306 304 301 302 301 303 302 301 304 303 303 304 303 304
307 305 305 303 298 298 296 296 298 302 303 303 304 305 305 305 303 304 305 305 305 306 306 305 304 303 300 301 300 302 305 305 301 299 302 302 303 303 304 303 304 304 303 303 303
307 305 303 302 298 297 296 296 297 300 302 303 304 306 306 305 302 302 305 305 305 306 306 305 303 301 301 299 299 299 302 301 302 301 302 302 303 301 302 305 303 304 303 301 302
307 306 303 303 298 296 296 296 297 300 302 302 304 307 307 304 303 304 305 306 306 306 306 303 300 302 300 301 299 302 301 302 303 303 302 303 301 301 301 301 301 301 300 301 301
307 307 303 302 298 297 296 295 297 300 302 302 304 307 307 301 303 305 305 306 306 305 304 302 301 300 300 299 299 300 301 301 301 301 300 301 302 302 301 299 300 300 299 299 299
308 308 305 303 299 297 296 295 297 300 302 302 305 306 306 302 305 304 305 306 305 305 303 301 300 299 299 300 299 300 300 301 302 303 302 302 302 302 300 299 300 299 299 298 298
311 309 307 303 300 297 296 295 297 301 303 303 306 305 303 304 305 304 306 306 305 305 303 303 302 301 300 302 299 300 302 302 303 303 304 302 304 302 299 299 299 298 297 298 297
312 310 309 303 301 297 295 296 298 302 304 304 306 304 304 305 304 304 305 306 306 305 304 303 303 299 300 299 299 301 299 300 303 304 304 302 301 301 299 300 299 298 297 297 297
312 312 309 304 300 297 295 297 300 303 305 306 306 304 305 305 305 304 305 306 306 306 305 304 302 299 300 299 299 300 300 303 304 304 305 303 303 300 299 299 298 297 296 296 297
312 312 310 305 300 297 296 299 301 304 306 306 306 302 305 305 306 304 305 306 305 304 304 301 299 299 298 296 299 300 302 303 303 304 305 305 304 300 299 299 297 296 296 296 297
312 312 310 306 300 296 298 301 301 303 305 305 306 305 305 305 305 304 305 305 304 303 303 301 299 299 299 301 301 299 300 302 303 304 304 302 303 300 299 299 298 297 296 296 296
315 312 311 306 300 296 301 301 304 304 304 305 305 305 305 305 304 303 305 304 303 304 302 301 300 303 302 302 301 302 303 304 304 304 304 303 303 300 299 300 298 297 296 296 295
316 312 311 305 298 297 300 301 304 303 303 305 305 305 305 304 303 303 304 304 304 305 302 302 303 304 304 304 305 304 302 303 303 303 303 302 301 302 300 299 298 296 294 294 294
318 312 311 304 298 299 301 302 301 302 307 311 305 304 305 303 303 303 303 304 303 303 302 304 304 304 304 305 302 305 303 303 305 299 299 300 301 301 300 300 300 296 294 294 293
318 313 311 301 299 299 301 302 302 307 330 305 302 303 304 303 303 303 303 304 304 304 301 304 305 305 305 304 304 303 303 304 304 303 301 303 300 299 300 301 300 297 295 293 292
318 314 311 302 297 298 300 303 307 318 326 302 302 306 306 305 304 303 304 301 302 304 303 305 303 304 304 303 304 302 303 303 301 301 302 302 300 302 301 301 300 296 295 293 292
313 315 310 303 298 298 301 307 314 322 304 303 303 305 305 305 305 305 307 306 306 305 305 305 304 304 303 305 305 304 301 303 301 303 304 302 303 303 300 299 298 296 295 293 291
308 313 308 301 298 299 304 307 316 307 302 302 305 305 305 304 304 306 306 307 305 303 305 307 307 305 304 303 305 305 301 304 299 301 302 302 307 306 299 298 295 294 294 292 291
309 306 301 298 299 302 305 310 315 310 304 304 305 305 306 306 305 305 305 306 306 304 308 305 305 304 305 305 304 305 307 300 301 289 302 300 301 301 298 297 295 294 294 293 292
305 301 299 298 299 304 304 312 309 304 303 304 307 304 304 305 304 304 305 304 305 304 302 303 307 302 305 305 304 304 302 304 301 298 299 299 300 302 302 300 296 294 294 293 291
302 302 299 299 301 301 306 307 307 301 303 303 303 305 304 305 303 303 305 303 303 303 301 301 305 304 304 306 307 307 305 305 301 300 301 299 300 300 302 301 298 295 294 293 291
300 305 298 299 300 300 305 303 301 299 301 302 302 304 305 304 304 304 304 303 302 302 304 302 303 306 305 301 301 304 304 304 301 302 302 302 302 299 298 300 298 296 294 292 291
298 296 298 298 302 302 299 297 297 299 301 302 301 303 302 304 307 303 302 302 302 303 304 302 302 302 301 301 300 304 304 303 300 302 304 304 301 299 297 297 297 295 293 293 291
297 298 295 296 297 301 302 302 301 297 300 301 300 301 302 303 302 303 304 302 302 302 303 302 301 303 304 303 301 303 303 303 302 302 303 303 302 301 299 298 296 294 293 292 291
297 299 297 297 298 299 301 302 304 300 299 300 300 301 303 304 303 304 302 302 301 303 301 301 302 301 301 301 302 303 303 303 304 304 303 302 302 301 300 299 298 296 293 292 291
299 297 295 298 298 298 302 302 305 302 300 301 302 302 301 305 304 304 303 304 305 301 300 297 300 297 296 296 300 301 301 303 304 304 303 302 300 300 300 298 297 296 293 293 292
300 297 298 300 299 300 301 303 303 302 299 300 301 301 301 302 301 301 300 301 301 301 299 297 295 296 295 292 293 296 295 300 302 302 303 303 303 299 298 299 298 297 294 294 293
Wind_Speed
10 12 12 12 13 14 14 13 13 12 13 14 14 11 10 8 11 6 8 11 12 14 9 1 6 8 9 5 6 3 4 3 6 6 4 1 3 2 1 5 4 3 3 5 16
10 12 13 12 13 14 14 13 12 11 12 13 13 12 9 6 4 13 10 12 9 8 4 2 3 6 5 5 5 5 4 5 3 5 5 3 3 4 3 3 3 2 3 14 18
9 12 13 13 12 13 14 14 13 11 11 12 13 12 8 4 2 3 15 13 6 3 4 4 7 5 6 5 6 4 4 5 1 3 4 4 3 2 7 3 1 1 6 14 17
10 12 13 13 13 13 13 13 13 11 11 11 12 12 6 3 2 5 14 11 7 3 3 3 6 5 5 5 3 7 3 1 4 2 4 3 5 4 3 2 4 4 5 8 11
11 13 12 13 13 14 13 13 13 11 10 10 10 11 2 4 1 10 12 10 5 3 5 2 4 5 7 6 4 6 3 4 4 6 5 5 3 5 3 2 3 8 10 8 12
11 13 14 13 13 14 14 13 13 11 9 9 9 8 1 1 3 11 9 9 8 4 4 5 5 5 8 5 5 5 7 5 3 3 4 6 2 2 3 2 4 5 6 9 13
11 13 14 14 12 14 15 14 13 10 8 7 7 5 4 3 4 10 8 12 12 9 5 6 8 6 7 6 3 6 7 4 3 0 2 6 3 3 2 3 4 6 8 8 14
11 12 14 14 14 13 15 15 13 8 7 5 3 2 2 2 4 8 5 9 13 15 17 13 16 10 6 6 5 5 5 4 2 2 1 4 4 3 1 3 4 7 8 11 13
12 12 12 14 15 14 15 15 10 7 4 3 1 1 1 2 2 7 7 3 6 9 10 8 7 5 3 6 5 5 3 3 2 1 3 4 3 4 2 3 3 6 8 9 12
13 12 11 12 14 16 16 11 5 4 2 1 2 1 3 1 3 4 3 4 4 2 4 7 6 4 3 3 5 6 4 2 4 4 3 3 4 4 2 3 3 5 6 9 12
14 13 11 10 12 14 18 3 4 2 7 1 1 3 1 2 2 5 4 1 2 7 3 4 5 4 6 3 3 7 5 4 1 2 4 6 4 8 5 3 4 6 8 9 10
14 13 11 10 8 10 8 3 1 2 5 1 1 1 3 1 2 4 6 2 3 3 0 5 2 3 6 4 5 4 4 2 1 1 1 1 6 5 5 2 2 4 6 9 11
17 14 11 8 7 3 3 2 1 2 2 2 1 1 1 1 1 1 4 2 4 4 2 5 4 4 4 3 5 2 5 4 2 1 2 5 5 3 3 3 3 4 3 5 8
19 16 11 7 4 1 1 2 1 1 4 3 0 1 2 2 3 2 4 2 5 5 4 5 2 4 4 3 2 4 2 5 5 3 3 3 4 4 4 5 3 3 5 5 7
22 17 13 10 2 2 2 5 2 2 3 3 1 1 0 1 3 4 5 3 5 4 4 4 5 4 3 3 0 3 3 4 3 4 3 1 2 4 4 5 6 2 2 4 6
25 21 17 10 7 3 4 5 3 3 7 1 1 2 3 3 2 1 2 7 3 5 6 3 1 2 3 3 1 9 5 5 4 2 1 1 4 4 5 6 5 3 1 3 5
17 27 23 14 3 9 8 3 3 5 3 3 3 4 2 2 2 1 3 2 4 5 1 2 1 1 4 7 5 2 4 2 4 2 4 3 1 6 5 4 7 8 5 2 3
27 32 23 17 8 11 4 4 6 4 5 2 3 4 5 5 1 2 5 3 2 1 2 5 3 7 3 2 6 5 2 4 7 3 2 3 6 3 3 6 7 6 6 4 2
11 23 17 17 16 12 4 3 8 7 6 9 3 4 3 2 3 3 5 5 8 11 6 5 0 2 2 1 1 5 4 2 6 2 2 4 5 1 4 5 5 7 5 5 2
13 8 5 22 18 7 3 6 4 3 7 3 7 3 6 6 4 5 8 4 6 6 5 3 4 1 1 1 2 2 3 3 2 2 4 4 5 5 12 13 9 8 8 7 5
6 3 8 20 20 3 5 5 6 5 4 7 6 5 4 7 7 5 4 2 3 5 5 6 3 1 2 7 8 3 3 1 2 3 4 1 6 2 14 17 17 13 11 9 8
6 2 21 29 3 3 3 6 4 4 1 3 3 1 7 7 5 4 7 3 6 9 9 6 4 4 5 1 2 2 6 6 4 5 3 1 6 2 5 14 14 13 12 8 6
3 3 5 11 5 5 3 3 2 3 4 6 7 5 2 7 4 6 4 1 4 6 7 7 2 3 2 2 2 5 6 4 4 3 7 5 5 3 4 8 10 15 11 10 8
3 4 2 3 1 5 7 6 6 2 3 2 3 4 5 4 3 6 4 0 2 1 3 2 3 5 7 4 5 5 6 8 5 3 4 8 2 4 6 11 10 12 14 12 10
4 4 4 7 11 6 11 12 15 8 3 4 2 7 7 5 4 6 4 2 3 3 1 2 5 4 3 2 3 4 5 14 16 16 9 6 13 11 15 17 20 16 13 13 12
4 3 3 2 5 19 11 14 21 11 11 6 8 16 10 6 9 9 8 4 4 3 5 2 2 2 3 3 3 5 10 11 18 18 17 13 12 5 12 8 11 15 16 17 15
7 3 4 8 10 15 17 22 21 13 10 7 19 6 13 18 2 1 5 7 4 9 9 6 6 3 5 3 3 7 17 21 10 10 15 15 21 8 8 19 21 20 21 20 18
Wind_Direction
354 351 348 350 352 355 0 5 7 9 7 2 360 358 354 25 37 64 46 342 322 334 340 9 64 77 63 64 40 103 68 136 178 160 149 96 109 26 42 69 33 33 93 322 340
350 349 345 346 349 351 355 358 2 2 3 359 356 353 350 4 52 56 6 345 334 337 6 72 74 60 54 35 24 62 86 178 175 159 147 127 99 125 83 21 37 29 0 352 357
346 348 344 341 345 350 350 351 355 352 353 356 354 351 341 349 99 338 355 355 354 350 72 74 85 71 63 40 3 21 125 169 72 117 118 118 79 66 120 48 302 2 327 347 356
339 345 343 338 341 344 348 345 347 348 345 349 354 348 340 347 182 346 354 3 17 103 107 93 36 60 71 74 19 91 65 100 144 94 82 100 114 75 46 115 100 65 0 350 344
331 339 341 339 339 339 341 342 339 343 344 343 350 349 2 44 1 349 1 14 48 91 73 99 82 119 107 107 88 79 130 63 85 90 75 100 83 136 101 102 70 18 8 344 357
322 332 336 335 337 335 335 335 335 334 341 343 349 351 26 123 356 355 13 41 63 80 58 42 141 117 89 70 79 127 103 105 76 125 114 115 149 53 204 128 31 12 340 358 5
308 321 331 330 333 335 330 330 329 329 331 342 351 3 59 155 16 11 48 53 62 98 90 68 124 70 137 94 164 123 82 78 38 82 132 135 142 144 148 113 18 352 350 357 5
294 307 322 328 329 336 329 326 322 320 322 332 351 12 97 40 42 35 79 74 81 88 85 88 87 95 74 123 45 76 67 124 244 144 243 137 245 176 347 160 5 351 355 0 352
287 295 313 323 330 333 330 323 312 322 324 346 49 98 115 32 62 15 41 63 80 84 80 81 69 87 86 99 61 11 167 156 198 166 152 164 235 173 116 103 20 0 357 352 347
276 283 297 317 326 329 333 322 301 326 311 320 78 25 6 269 344 350 33 66 84 90 38 46 59 81 50 86 201 186 168 165 184 200 168 194 233 190 154 104 35 358 351 1 354
267 273 288 308 321 332 340 7 18 312 45 62 52 122 142 293 49 20 9 66 86 52 89 10 86 177 186 149 114 125 120 135 164 193 179 220 235 204 180 94 32 8 6 358 343
254 260 278 296 320 332 332 51 83 297 306 186 132 349 117 135 111 11 3 113 72 117 290 36 145 148 107 91 100 92 112 112 16 10 229 306 264 194 175 150 84 28 6 349 337
243 247 259 281 313 342 7 81 97 23 261 201 194 180 103 110 144 36 350 101 92 104 34 142 156 149 112 120 105 49 143 172 149 98 43 342 285 152 188 125 119 46 14 344 328
238 235 241 255 283 299 124 186 316 67 41 240 195 7 42 130 55 18 2 107 44 140 114 86 166 139 118 137 122 165 165 123 122 108 222 33 276 225 193 191 179 37 11 351 344
243 225 224 212 179 165 148 146 310 251 282 22 89 341 84 128 126 17 31 17 118 115 125 183 148 138 127 112 2 161 128 104 87 91 51 95 78 269 133 222 207 128 13 4 345
252 216 209 212 231 204 166 141 20 43 243 204 49 134 89 22 37 122 52 52 131 91 40 87 283 57 126 82 72 144 82 56 58 87 26 130 136 262 189 197 147 155 133 26 347
266 221 201 183 249 200 159 88 68 231 348 241 173 160 117 140 101 67 129 113 126 94 177 21 3 49 128 84 4 82 110 344 346 13 220 152 75 255 190 174 153 160 156 81 357
317 211 188 180 183 174 156 62 192 234 212 144 121 114 177 156 316 127 129 165 93 109 126 154 257 179 181 204 176 183 192 167 208 208 228 130 230 263 150 122 120 136 147 126 25
212 170 165 170 166 189 102 199 206 199 151 151 71 130 201 187 157 128 195 205 172 178 175 152 166 346 34 112 160 184 199 134 104 29 48 213 266 259 131 151 155 162 163 163 184
163 133 159 169 169 125 97 263 228 193 129 149 189 151 171 186 154 181 182 201 195 165 121 217 103 316 227 58 20 188 152 88 8 176 252 268 273 228 196 195 186 182 186 188 195
156 131 149 154 144 139 190 222 250 224 151 163 206 148 186 179 175 186 195 258 137 144 155 164 173 138 138 204 181 153 193 185 146 168 179 225 256 207 194 187 183 186 189 187 190
154 195 160 147 147 194 191 175 244 184 194 141 159 163 175 164 167 215 211 228 150 151 174 208 110 165 203 279 230 195 196 178 146 212 235 157 270 328 211 181 174 178 184 190 188
149 115 161 180 177 205 140 259 237 171 182 185 184 189 145 173 202 195 180 32 160 174 168 186 209 87 1 358 334 220 196 182 129 105 204 151 255 27 105 148 174 171 177 189 188
142 153 158 227 273 203 168 179 205 259 197 183 151 144 133 174 271 168 149 65 86 144 339 77 174 183 195 169 135 198 196 183 167 164 169 220 214 218 186 182 180 185 177 183 190
183 199 190 186 223 222 178 174 187 197 185 213 226 219 161 163 162 173 130 124 37 166 147 180 220 180 235 160 174 196 180 192 206 218 204 198 218 208 194 194 195 183 175 178 190
176 168 182 233 160 197 201 205 193 176 159 209 224 196 184 186 199 182 138 172 182 161 178 192 220 100 296 326 250 250 236 201 215 230 246 243 256 182 201 164 169 183 182 190 191
222 169 175 191 176 186 210 210 207 158 215 199 206 126 193 221 88 37 95 138 154 171 178 155 142 118 262 5 331 289 226 211 203 210 210 218 232 168 176 183 190 187 189 193 191